EST,Max TemperatureF,Mean TemperatureF,Min TemperatureF,Max Dew PointF,MeanDew PointF,Min DewpointF,Max Humidity, Mean Humidity, Min Humidity, Max Sea Level PressureIn, Mean Sea Level PressureIn, Min Sea Level PressureIn, Max VisibilityMiles, Mean VisibilityMiles, Min VisibilityMiles, Max Wind SpeedMPH, Mean Wind SpeedMPH, Max Gust SpeedMPH,PrecipitationIn, CloudCover, Events, WindDirDegrees
2012-11-1,58,54,50,41,39,36,66,59,51,29.82,29.77,29.72,10,10,10,15,9,23,0.00,1,,290
2012-11-2,63,52,41,44,38,34,71,54,36,29.94,29.86,29.80,10,10,10,18,9,26,0.00,1,,294
2012-11-3,56,48,40,40,37,35,85,66,47,30.09,30.02,29.94,10,10,10,12,4,17,0.00,0,,340
2012-11-4,62,51,40,49,44,38,89,70,51,30.10,30.01,29.91,10,10,10,18,7,28,0.01,6,Rain,46
2012-11-5,54,51,48,49,40,37,77,68,59,30.10,30.03,29.94,10,10,9,15,9,25,0.02,5,Rain,24
2012-11-6,56,53,49,51,46,39,89,78,66,30.07,29.95,29.75,10,9,4,15,10,28,0.70,4,Rain,33
2012-11-7,54,50,45,52,45,39,100,86,71,29.85,29.77,29.73,10,10,8,15,10,25,0.03,8,Rain,332
2012-11-8,55,49,42,40,37,33,83,65,46,30.04,29.94,29.86,10,10,10,15,10,24,0.00,4,,313
2012-11-9,56,48,39,39,35,30,92,67,41,30.27,30.19,30.04,10,10,10,10,4,22,0.00,0,,336
2012-11-10,63,52,41,48,40,32,100,67,34,30.42,30.36,30.27,10,10,9,6,3,8,0.00,0,,344
2012-11-11,70,58,45,55,50,41,92,73,53,30.51,30.47,30.42,10,10,10,8,5,12,0.00,0,,39
2012-11-12,74,64,54,62,59,53,93,79,64,30.45,30.36,30.25,10,10,7,15,5,23,0.01,2,Rain,116
2012-11-13,67,59,51,63,57,50,100,93,86,30.32,30.24,30.19,10,8,2,16,9,30,0.10,7,Rain,45
2012-11-14,57,54,50,52,48,44,96,87,77,30.37,30.33,30.30,10,10,5,18,12,31,0.00,8,,28
2012-11-15,61,56,50,52,50,45,93,83,72,30.28,30.21,30.17,10,10,8,13,9,25,0.01,6,Rain,27
2012-11-16,57,54,51,52,49,44,96,84,71,30.32,30.22,30.13,10,10,7,16,11,29,0.07,8,Rain,18
2012-11-17,60,56,52,53,50,45,93,81,69,30.36,30.33,30.30,10,10,10,16,11,30,0.00,5,,39
2012-11-18,61,59,57,57,55,53,87,84,80,30.30,30.24,30.16,10,7,2,22,15,38,0.11,8,Rain,46
2012-11-19,60,58,55,57,56,54,93,89,84,30.15,30.07,30.02,7,6,4,20,14,38,0.03,8,Rain,20
2012-11-20,59,57,54,55,52,49,100,90,80,30.06,30.03,30.01,10,8,4,16,11,29,0.00,8,,19
2012-11-21,60,57,53,52,50,46,93,84,75,30.08,30.04,30.00,10,10,10,17,11,31,0.00,7,,21
2012-11-22,57,55,53,52,50,47,93,85,77,30.10,30.06,30.01,10,9,7,20,12,33,0.00,8,,15
2012-11-23,57,54,51,51,49,46,96,84,72,30.09,30.00,29.85,10,9,4,13,7,20,0.00,3,,269
2012-11-24,56,50,44,51,35,22,86,66,45,30.07,29.93,29.81,10,10,10,15,9,25,0.00,2,,336
2012-11-25,48,44,40,34,30,27,67,54,40,30.16,30.11,30.06,10,10,10,14,6,18,0.00,0,,267
2012-11-26,58,47,36,44,39,34,92,68,43,30.23,30.18,30.11,10,10,10,9,5,15,0.00,0,,261
2012-11-27,63,50,37,51,44,35,100,70,39,30.22,30.17,30.10,10,10,6,9,3,16,0.05,3,Rain,211
2012-11-28,51,48,44,48,39,33,93,77,60,30.38,30.25,30.15,10,10,10,12,6,22,T,5,Rain,10
2012-11-29,53,42,31,40,34,28,89,70,50,30.49,30.43,30.36,10,10,10,8,2,12,0.00,0,,44
2012-11-30,58,45,31,47,38,28,96,70,43,30.43,30.38,30.34,10,10,7,7,3,9,0.00,0,,40